Location: Newark
(41.6500°N, 71.4833°W)
Time: 05:00:38
(UTC+00:00)

deb Explorer IX - Pass Details

Date: 02 February 2020
Orbit: 549 x 1099 km, 38.8° (Epoch: 27 February)

Event Time Altitude Azimuth Distance (km) Brightness Sun altitude
Rises 23:13:17 0° 236° (WSW) 3,241 ? -13.5°
Reaches altitude 10° 23:15:41 10° 231° (SW) 2,399 ? -14.0°
Maximum altitude 23:21:10 47° 159° (SSE) 1,191 ? -15.0°
Enters shadow 23:25:07 22° 97° (E) 1,988 ? -15.7°
Drops below altitude 10° 23:27:30 10° 88° (E) 2,767 - -16.2°
Sets 23:30:26 0° 83° (E) 3,786 - -16.7°
